Hourly Data Report for October 12, 2017

All times are specified in Local Standard Time (LST). Add 1 hour to adjust for Daylight Saving Time where and when it is observed.

WINNIPEG THE FORKS
MANITOBA

49°53'18.008" N
97°07'46.007" W
230.00 m
5023262
71579
XWN

Download Data

Hourly Data (October 2017)
Hourly Data Report for October 12, 2017
Temp Definition
°C
Dew Point Temp Definition
°C
Rel Hum Definition
%
Wind Dir Definition
10's deg

Wind Spd Definition
km/h
Visibility Definition
km
Stn Press Definition
kPa
Hmdx Definition


Wind Chill Definition


Weather Definition


TIME
00:00 9.6 1.6 58 20 4   98.27     LegendNANA
01:00 11.0 2.1 54 20 8   98.22     LegendNANA
02:00 10.9 3.6 61 20 9   98.20     LegendNANA
03:00 10.7 4.5 66 20 9   98.10     LegendNANA
04:00 10.4 5.2 70 20 10   98.11     LegendNANA
05:00 10.1 5.1 71 19 8   98.09     LegendNANA
06:00 9.8 4.8 71 20 8   98.07     LegendNANA
07:00 9.5 4.6 72 20 8   98.03     LegendNANA
08:00 9.5 4.4 71 20 10   98.03     LegendNANA
09:00 9.7 4.2 68 20 11   98.01     LegendNANA
10:00 10.7 4.2 64 20 9   97.93     LegendNANA
11:00 12.5 5.1 61 20 10   97.94     LegendNANA
12:00 14.0 5.1 55 20 9   97.89     LegendNANA
13:00 14.8 5.1 52 20 9   97.83     LegendNANA
14:00 14.5 5.2 54 20 7   97.79     LegendNANA
15:00 15.0 5.5 53 21 10   97.80     LegendNANA
16:00 14.6 5.2 53 20 8   97.75     LegendNANA
17:00 14.6 4.9 52 22 9   97.76     LegendNANA
18:00 14.0 5.4 56 21 5   97.78     LegendNANA
19:00 12.3 2.7 52 26 8   97.90     LegendNANA
20:00 10.2 3.0 61 30 13   98.04     LegendNANA
21:00 8.6 4.0 73 29 13   98.21     LegendNANA
22:00 7.3 2.5 71 26 11   98.30     LegendNANA
23:00 5.8 0.4 68 26 9   98.38     LegendNANA

Notes on Data Quality.

Legend

  • E = Estimated
  • M = Missing
  • NA = Not Available
  • ‡ = Partner data that is not subject to review by the National Climate Archives
Date modified: